Content
SEND FEEDBACK

Daily
Averages
Monthly
Summary
United States of America

CHINA LAKE, CALIFORNIA


Home > North America > United States > California
Elevation: 2218 feet     Latitude: 35 40N     Longitude: 117 40W

WEATHER
 
SELECT A DAY
Number of Records: 120,861;   Date Range: 1/3/95 - 12/18/14
 
SHARE

PRINT THIS DATA

[ ← Previous Day ]
WEATHER ALMANAC - JANUARY 31, 2013
[ Next Day → ]
[ °C ]   °F
Weather ElementAverageHighLow
Temperature48.5 °F66 °F (1:56 pm)32 °F (4:56 am)
Dewpoint29.2 °F32 °F (9:56 am)26.1 °F (4:56 am)
Humidity52 %82 % (6:56 am)25 % (2:56 pm)
Barometer30.26 in30.33 in (7:56 am)30.18 in (4:56 pm)
Wind Speed4.2 mph6.9 mph (2:56 am)
Weather ElementAverage
Visibility10 mi
Wind DirectionSSE (149.1 °)

Weather ElementTotal
Precipitation---
Heating Degree Days16 (Base 65)
Averaged from 23 records on January 31, 2013
WEATHER CONDITIONS BREAKOUT
WIND DIRECTION BREAKOUT
WEATHER BY HOUR - JANUARY 31, 2013
[ °C ]   °F
Local TimeTemperatureDewpointHumidityBarometerVisibilityWind DirectionWind SpeedGust SpeedPrecipitationEventsConditions
1:56 AM37.9 °F28.9 °F70 %30.30 in10.0 miSouth (170°)5.8 mphClear
2:56 AM37.0 °F28.9 °F73 %30.29 in10.0 miSSW (210°)6.9 mphClear
3:56 AM33.1 °F27.0 °F78 %30.29 in10.0 miNNW (340°)3.5 mphClear
4:56 AM32.0 °F26.1 °F79 %30.29 in10.0 miSSW (210°)4.6 mphClear
5:56 AM34.0 °F28.0 °F79 %30.30 in10.0 miSouth (180°)3.5 mphClear
6:56 AM32.0 °F27.0 °F82 %30.32 in10.0 miCalmClear
7:56 AM37.9 °F28.9 °F70 %30.33 in10.0 miWSW (250°)3.5 mphClear
8:56 AM43.0 °F30.0 °F60 %30.33 in10.0 miSSW (200°)3.5 mphClear
9:56 AM52.0 °F32.0 °F47 %30.32 in10.0 miCalmClear
10:56 AM59.0 °F30.0 °F33 %30.30 in10.0 miCalmClear
11:56 AM63.0 °F30.0 °F29 %30.28 in10.0 miSSE (150°)4.6 mphClear
12:56 PM64.9 °F30.0 °F27 %30.25 in10.0 miSSE (160°)3.5 mphClear
1:56 PM66.0 °F30.0 °F26 %30.22 in10.0 miSE (130°)6.9 mphClear
2:56 PM66.0 °F28.9 °F25 %30.20 in10.0 miESE (120°)5.8 mphClear
3:56 PM66.0 °F30.0 °F26 %30.19 in10.0 miEast (90°)3.5 mphClear
4:56 PM64.0 °F30.0 °F28 %30.18 in10.0 miEast (80°)4.6 mphClear
5:56 PM57.9 °F30.0 °F35 %30.19 in10.0 miEast (100°)3.5 mphClear
6:56 PM52.0 °F30.0 °F43 %30.22 in10.0 miSSE (160°)6.9 mphClear
7:56 PM48.0 °F30.0 °F50 %30.23 in10.0 miWSW (250°)6.9 mphClear
8:56 PM45.0 °F30.0 °F56 %30.24 in10.0 miSW (220°)4.6 mphClear
9:56 PM43.0 °F28.9 °F58 %30.23 in10.0 miSSW (200°)6.9 mphClear
10:56 PM42.1 °F28.9 °F60 %30.22 in10.0 miSSW (210°)6.9 mphClear
11:56 PM39.9 °F28.0 °F63 %30.21 in10.0 miCalmClear
Hourly data recorded from KNID, located miles away from China Lake, California







STORIES FROM OUR PARTNERS